Dublin, Ireland

3:17 AM IST on July 28, 2016 (GMT +0100)
Dublin International

Weather History for EIDW - September, 2013

Change the Weather History Date:

Thursday, September 12, 2013

  Actual Average Record
Temperature  
Mean Temperature 60 °F -  
Max Temperature 65 °F 60 °F 68 °F (2006)
Min Temperature 53 °F 48 °F 41 °F (1999)
Degree Days  
Heating Degree Days 5    
Growing Degree Days 10 (Base 50)    
Moisture  
Dew Point 59 °F    
Average Humidity 94    
Maximum Humidity 100    
Minimum Humidity 88    
Precipitation  
Precipitation 0.12 in 0.09 in - ()
Sea Level Pressure  
Sea Level Pressure 30.06 in    
Wind  
Wind Speed 9 mph ()    
Max Wind Speed 17 mph    
Max Gust Speed 28 mph    
Visibility 5.3 miles    
Events Rain    
Averages and records for this station are not official NWS values.
T = Trace of Precipitation, MM = Missing Value Source: Averaged Metar Reports

Daily Weather History Graph

Daily Weather History Graph

Search for Another Location

Airport or City:

Trip Planner

Search our weather history database for the weather conditions in past years. The results will help you decide how hot, cold, wet, or windy it might be!

Date:

Astronomy

Sep. 12, 2013 Rise Set
Actual Time 6:53 AM IST 7:48 PM IST
Civil Twilight 6:18 AM IST 8:23 PM IST
Nautical Twilight 5:35 AM IST 9:05 PM IST
Astronomical Twilight 4:49 AM IST 9:51 PM IST
Moon 3:04 PM IST (9/12) 11:32 PM IST (9/12)
Length of Visible Light 14h 05m
Length of Day
12h 54m
Waxing Crescent, 47% of the Moon is Illuminated
Sep 12
Waxing Crescent
Sep 12
First Quarter
Sep 19
Full
Sep 27
Last Quarter
Oct 5
New

Hourly Weather History & Observations

Time (IST) Temp. Dew Point Humidity Pressure Visibility Wind Dir Wind Speed Gust Speed Precip Events Conditions
12:00 AM 59.0 °F 57.2 °F 94% 30.15 in 6.2 mi WNW 8.1 mph - N/A   Mostly Cloudy
12:30 AM 59.0 °F 57.2 °F 94% 30.15 in 6.2 mi WNW 6.9 mph - N/A   Mostly Cloudy
1:00 AM 59 °F 58 °F 93% 30.15 in 12 mi WNW 8.9 mph - -   Partly Cloudy
1:00 AM 59.0 °F 57.2 °F 94% 30.12 in 6.2 mi WNW 9.2 mph - N/A   Mostly Cloudy
1:30 AM 59.0 °F 57.2 °F 94% 30.12 in 6.2 mi WNW 9.2 mph - N/A   Light Drizzle
2:00 AM 59.0 °F 57.2 °F 94% 30.12 in 6.2 mi WNW 9.2 mph - N/A   Mostly Cloudy
2:30 AM 59.0 °F 57.2 °F 94% 30.12 in 6.2 mi WNW 9.2 mph - N/A   Mostly Cloudy
3:00 AM 59.0 °F 55.4 °F 88% 30.12 in 6.2 mi WNW 12.7 mph - N/A   Light Drizzle
3:30 AM 59.0 °F 57.2 °F 94% 30.12 in 6.2 mi West 8.1 mph - N/A   Mostly Cloudy
4:00 AM 59.0 °F 55.4 °F 88% 30.09 in 6.2 mi West 5.8 mph - N/A   Overcast
4:30 AM 57.2 °F 57.2 °F 100% 30.09 in 3.7 mi West 8.1 mph - N/A   Light Drizzle
5:00 AM 57.2 °F 57.2 °F 100% 30.09 in 3.1 mi West 4.6 mph - N/A   Light Drizzle
5:30 AM 59.0 °F 57.2 °F 94% 30.09 in 3.1 mi West 4.6 mph - N/A   Light Drizzle
6:00 AM 59.0 °F 57.2 °F 94% 30.09 in 3.1 mi WSW 10.4 mph - N/A   Light Drizzle
6:30 AM 59.0 °F 57.2 °F 94% 30.09 in 3.7 mi West 8.1 mph - N/A   Light Drizzle
7:00 AM 58 °F 58 °F 99% 30.09 in 2 mi WSW 4.5 mph - - Rain Light Drizzle
7:00 AM 59.0 °F 57.2 °F 94% 30.06 in 2.5 mi WSW 4.6 mph - N/A   Light Drizzle
7:30 AM 59.0 °F 59.0 °F 100% 30.06 in 4.3 mi SW 9.2 mph - N/A   Light Drizzle
8:00 AM 59.0 °F 59.0 °F 100% 30.06 in 3.1 mi SW 8.1 mph - N/A   Mostly Cloudy
8:30 AM 59.0 °F 59.0 °F 100% 30.06 in 4.3 mi SW 8.1 mph - N/A   Light Drizzle
9:00 AM 60.8 °F 59.0 °F 94% 30.06 in 2.8 mi SW 9.2 mph - N/A   Light Drizzle
9:30 AM 60.8 °F 59.0 °F 94% 30.06 in 5.6 mi SW 10.4 mph - N/A   Light Drizzle
10:00 AM 60.8 °F 59.0 °F 94% 30.06 in 6.2 mi SW 9.2 mph - N/A   Mostly Cloudy
10:30 AM 62.6 °F 59.0 °F 88% 30.06 in 6.2 mi SW 10.4 mph - N/A   Mostly Cloudy
11:00 AM 62.6 °F 60.8 °F 94% 30.06 in 6.2 mi SW 11.5 mph - N/A   Light Drizzle
11:30 AM 62.6 °F 60.8 °F 94% 30.04 in 6.2 mi SW 11.5 mph - N/A   Mostly Cloudy
12:00 PM 62.6 °F 60.8 °F 94% 30.04 in 2.5 mi WSW 12.7 mph - N/A   Light Drizzle
12:30 PM 62.6 °F 60.8 °F 94% 30.04 in 1.6 mi WSW 13.8 mph - N/A   Light Drizzle
1:00 PM 62 °F 61 °F 95% 30.05 in 4 mi SW 15.7 mph - - Rain Light Rain
1:00 PM 62.6 °F 60.8 °F 94% 30.04 in 3.7 mi SW 13.8 mph - N/A Rain Light Rain
1:30 PM 62.6 °F 62.6 °F 100% 30.04 in 6.2 mi WSW 13.8 mph - N/A   Light Drizzle
2:00 PM 64.4 °F 62.6 °F 94% 30.04 in 6.2 mi WSW 15.0 mph - N/A   Mostly Cloudy
2:30 PM 64.4 °F 62.6 °F 94% 30.01 in 6.2 mi WSW 15.0 mph - N/A   Mostly Cloudy
3:00 PM 64.4 °F 62.6 °F 94% 30.01 in 6.2 mi SW 13.8 mph - N/A   Light Drizzle
3:30 PM 64.4 °F 62.6 °F 94% 30.01 in 6.2 mi SW 16.1 mph - N/A   Mostly Cloudy
4:00 PM 64.4 °F 62.6 °F 94% 30.01 in 6.2 mi WSW 15.0 mph - N/A Rain Light Rain
4:30 PM 62.6 °F 62.6 °F 100% 30.01 in 3.7 mi WSW 17.3 mph - N/A   Light Drizzle
5:00 PM 62.6 °F 62.6 °F 100% 30.01 in 3.1 mi WSW 16.1 mph - N/A   Light Drizzle
5:30 PM 64.4 °F 62.6 °F 94% 29.98 in 4.3 mi WSW 15.0 mph - N/A   Mostly Cloudy
6:00 PM 62.6 °F 60.8 °F 94% 29.98 in 6.2 mi West 16.1 mph - N/A   Mostly Cloudy
6:30 PM 64.4 °F 60.8 °F 88% 30.01 in 6.2 mi West 16.1 mph - N/A   Mostly Cloudy
7:00 PM 63 °F 61 °F 89% 30.01 in 9 mi West 15.7 mph - - Rain Light Drizzle
7:00 PM 62.6 °F 60.8 °F 94% 30.01 in 6.2 mi West 15.0 mph - N/A   Light Drizzle
7:30 PM 62.6 °F 60.8 °F 94% 30.01 in 6.2 mi West 13.8 mph - N/A   Mostly Cloudy
8:00 PM 60.8 °F 57.2 °F 88% 30.04 in 3.7 mi West 16.1 mph 27.6 mph N/A   Light Drizzle
8:30 PM 59.0 °F 57.2 °F 94% 30.04 in 6.2 mi WNW 12.7 mph - N/A   Mostly Cloudy
9:00 PM 59.0 °F 55.4 °F 88% 30.06 in 6.2 mi NW 12.7 mph - N/A   Mostly Cloudy
9:30 PM 59.0 °F 55.4 °F 88% 30.06 in 6.2 mi NW 13.8 mph - N/A   Light Drizzle
10:00 PM 57.2 °F 53.6 °F 88% 30.06 in 6.2 mi NW 11.5 mph - N/A   Mostly Cloudy
10:30 PM 57.2 °F 53.6 °F 88% 30.09 in 6.2 mi NW 11.5 mph - N/A   Mostly Cloudy
11:00 PM 55.4 °F 53.6 °F 94% 30.09 in 6.2 mi NW 9.2 mph - N/A   Mostly Cloudy
11:30 PM 53.6 °F 51.8 °F 94% 30.09 in 6.2 mi NW 9.2 mph - N/A   Mostly Cloudy